Probability
9 9 12 18 21 22 23 21 16 12 9 7 6 4 3 3 3 2 2 1 0 0 0 0 1 2 2 2 3 3 3 3 2 1 0 0 0 0 0 0 0 0 0
9 9 12 16 20 22 23 22 18 14 11 9 6 4 3 2 2 2 1 0 0 0 0 0 0 1 1 2 3 3 3 3 3 2 1 0 0 1 1 0 0 0 0
9 10 12 16 18 21 23 23 20 17 15 13 10 7 5 3 3 2 0 0 0 0 0 0 1 1 1 2 3 3 3 3 3 2 2 1 1 2 1 0 0 0 0
10 10 12 15 17 19 22 23 23 22 20 18 16 12 8 5 3 1 0 0 0 0 0 1 2 2 3 3 3 3 3 3 3 1 1 2 2 2 2 0 0 0 0
10 11 12 13 14 17 21 24 25 26 24 22 20 16 10 5 3 1 0 0 0 0 1 2 3 3 3 3 3 3 3 3 3 1 1 2 3 3 2 1 0 0 0
10 11 11 12 13 17 22 25 27 28 27 25 23 18 11 6 3 2 1 1 0 0 1 2 2 2 2 3 3 3 3 3 3 2 1 2 3 3 3 2 1 1 1
9 11 12 12 13 17 22 25 27 28 28 26 23 18 12 6 4 3 2 1 1 0 0 1 1 2 3 3 3 3 3 3 3 2 1 1 2 3 3 4 3 3 2
9 11 12 13 15 18 21 23 24 25 26 24 21 17 13 8 5 3 2 2 2 1 0 0 1 2 3 3 3 3 3 3 3 3 1 1 2 3 4 5 5 4 4
8 10 11 12 14 18 21 22 22 22 23 22 19 16 13 9 6 3 1 2 4 3 1 1 0 1 1 2 3 3 3 3 3 3 3 3 3 3 4 6 6 5 5
8 9 10 10 12 15 19 20 19 19 20 20 19 16 13 10 8 5 3 3 4 3 3 2 1 0 0 1 1 2 3 3 3 3 3 3 3 3 4 6 6 6 6
9 9 8 9 10 13 15 17 16 15 16 18 17 15 12 10 9 8 7 6 6 5 5 4 3 1 0 0 0 1 3 3 3 2 2 2 3 4 5 6 5 4 5
11 10 8 8 9 10 11 13 12 11 13 15 15 14 13 11 9 10 10 10 9 8 7 6 5 3 1 0 0 1 2 2 1 1 1 2 2 4 5 5 4 3 4
12 12 10 9 8 7 8 10 10 9 10 14 16 17 16 13 10 10 12 13 12 10 9 9 7 5 3 2 2 1 1 1 0 1 2 2 2 2 2 3 3 3 3
11 11 10 8 6 4 4 8 9 9 9 13 17 20 19 17 14 13 13 14 13 10 9 9 9 7 6 6 5 3 1 0 1 2 3 3 2 1 0 1 1 2 3
8 9 9 6 3 1 1 3 6 8 9 11 17 20 21 19 17 16 15 14 12 10 8 8 8 9 9 8 7 5 2 1 2 4 4 3 1 0 0 0 1 2 3
6 8 8 5 1 0 0 1 4 8 10 11 14 17 19 20 19 18 16 13 11 9 8 7 7 9 8 6 4 4 3 3 3 5 5 3 1 0 0 0 1 2 3
6 7 7 4 2 1 1 2 4 8 11 12 12 14 17 19 18 17 14 12 9 8 8 7 7 8 7 3 1 1 2 2 3 5 5 3 2 1 0 0 0 1 2
6 7 7 6 5 4 3 3 4 7 10 11 11 12 15 16 16 14 13 12 11 8 7 6 6 7 6 2 0 0 1 2 3 4 4 3 2 1 0 0 0 0 1
5 6 7 8 8 7 6 5 5 6 8 10 11 10 12 14 14 12 12 14 13 9 6 5 5 6 5 2 0 0 1 2 3 3 3 3 2 1 0 0 0 0 0
4 5 6 6 6 7 7 6 6 6 6 7 9 10 12 14 13 11 12 14 14 11 7 5 5 6 6 2 0 1 3 3 3 3 3 3 2 1 0 1 1 1 0
3 3 4 3 3 4 5 6 6 4 3 4 5 7 10 14 14 13 13 13 13 12 10 7 5 7 7 3 0 1 3 4 4 4 4 4 2 0 0 1 1 1 1
1 1 1 1 1 1 3 4 4 2 1 1 2 3 7 11 13 14 13 13 12 13 13 10 7 7 7 4 1 0 1 3 5 5 5 5 3 1 0 0 1 1 0
0 0 0 1 1 1 1 1 1 0 0 0 0 1 4 8 12 13 13 13 13 14 14 11 8 7 8 7 4 1 1 2 4 5 4 3 2 1 0 0 0 0 0
1 0 0 1 2 1 0 0 0 0 0 1 1 2 3 7 11 13 13 13 14 15 14 11 7 7 8 9 7 5 3 2 3 4 3 2 1 0 0 0 0 0 0
2 1 0 1 1 1 0 0 0 1 1 2 3 3 4 7 11 12 12 11 11 12 12 9 7 6 7 8 7 6 5 4 3 3 3 2 1 1 1 0 0 0 0
2 1 0 0 0 0 0 0 1 2 2 3 3 3 5 7 10 12 10 8 8 8 7 6 6 6 6 6 4 4 4 4 4 3 3 3 2 2 2 1 0 0 0
Wind_Speed
4 3 4 5 6 6 7 7 6 6 5 4 3 3 2 1 1 1 1 2 2 2 3 2 2 2 2 2 2 2 2 1 1 2 2 3 3 3 2 2 3 3 3
1 2 4 4 5 7 7 7 7 6 6 4 3 3 2 2 1 1 1 2 2 2 3 3 2 2 2 2 2 2 1 1 1 1 1 2 3 3 3 2 3 3 3
4 4 4 5 5 6 7 8 7 6 6 5 4 3 2 2 1 1 0 0 2 2 2 3 2 2 2 2 1 1 2 1 1 1 2 1 1 2 3 3 2 3 3
3 4 5 5 5 6 6 6 6 6 6 6 6 6 4 3 2 2 1 1 2 2 2 3 3 2 2 2 1 1 1 2 1 0 1 1 2 1 2 3 2 3 3
4 5 6 6 6 5 5 5 6 6 5 6 6 6 4 2 2 1 2 1 1 1 2 2 2 2 2 2 1 2 2 1 2 1 1 1 1 1 1 2 3 3 3
3 4 3 3 3 4 4 5 6 5 5 6 6 6 6 4 4 3 2 1 0 0 1 1 1 2 2 2 2 2 2 1 1 1 1 1 1 1 1 1 2 3 3
3 3 2 3 3 4 4 4 6 5 5 6 6 6 6 6 5 5 4 3 2 1 1 1 1 1 1 1 2 2 1 1 1 1 1 1 1 1 2 1 1 1 2
2 3 4 4 4 4 4 4 5 5 6 6 5 5 5 4 3 4 4 4 3 2 2 2 2 1 1 2 2 1 1 1 1 1 1 1 1 1 2 2 1 1 2
2 2 3 3 3 4 4 5 5 5 6 6 5 4 4 4 4 3 3 3 2 2 2 2 2 2 2 2 2 1 1 1 1 1 1 1 1 1 1 1 2 1 1
1 1 2 2 2 3 3 4 4 5 5 6 5 5 4 4 4 3 3 3 3 2 3 2 2 2 2 2 2 1 1 1 1 1 1 1 1 1 1 1 1 2 2
1 1 1 1 2 2 3 3 3 3 5 6 5 5 4 4 3 3 4 4 3 3 3 3 3 2 2 2 2 2 1 1 1 1 1 2 2 1 1 1 1 1 2
1 2 1 1 1 1 2 3 3 3 4 5 5 5 4 4 4 4 4 4 4 4 4 4 3 3 3 2 3 3 2 2 2 2 2 2 1 2 1 1 1 2 2
1 1 1 1 1 1 1 2 2 2 2 4 5 5 5 5 5 4 3 4 4 3 3 4 4 4 4 3 3 3 3 3 3 3 3 3 2 2 2 2 2 2 2
1 1 1 1 1 1 1 2 2 2 2 3 5 5 6 6 5 4 3 3 4 4 4 4 4 4 4 4 4 3 3 3 4 3 4 4 4 4 4 3 3 2 2
1 1 1 1 1 1 1 1 1 1 2 3 3 4 5 4 4 4 3 3 3 4 4 3 3 3 3 4 4 3 4 4 4 3 4 4 5 5 4 3 3 2 2
2 2 1 1 1 1 2 1 1 1 1 3 3 2 3 3 4 4 4 3 3 3 3 4 4 4 4 4 5 4 3 3 4 4 4 4 4 5 5 6 5 4 3
2 2 2 2 2 2 2 2 2 1 1 2 2 2 2 4 4 4 3 4 4 3 3 4 4 4 4 4 4 5 3 4 4 4 3 3 3 4 3 4 4 5 5
2 2 2 1 1 1 1 1 1 0 1 1 1 2 2 3 3 4 4 4 3 4 3 3 3 3 3 3 3 3 3 3 4 4 4 4 4 3 3 2 2 3 3
2 2 2 1 1 1 1 1 0 0 0 1 1 2 2 3 3 4 4 3 3 3 3 3 3 3 3 3 3 3 2 3 3 3 3 3 3 4 3 2 3 3 3
1 1 1 1 1 1 1 2 1 0 1 2 2 2 2 2 4 4 3 2 3 3 3 2 3 3 3 2 3 3 2 2 2 2 2 3 3 3 2 3 3 4 4
1 1 1 1 1 1 1 2 1 1 3 1 1 1 2 2 2 2 2 2 2 2 2 2 2 3 3 3 3 4 3 3 3 2 2 2 3 3 3 3 3 4 3
0 1 1 1 1 1 1 1 1 2 1 0 0 1 1 1 1 2 1 2 2 2 2 2 2 2 2 2 3 5 5 4 3 3 2 3 3 3 3 2 3 3 1
1 2 2 1 1 1 2 2 2 1 0 0 0 1 1 1 1 2 2 2 2 2 2 2 2 2 2 2 4 5 6 5 3 3 3 3 3 2 2 2 2 1 1
1 1 2 1 1 2 1 2 2 1 1 1 0 1 1 1 1 1 2 3 3 3 3 3 3 3 2 2 2 2 3 3 3 2 2 2 2 1 2 1 1 1 1
1 1 2 2 2 2 2 1 1 1 1 1 0 1 1 1 1 1 2 4 4 4 4 4 4 4 3 4 4 3 3 3 2 1 0 0 0 1 1 1 1 1 1
0 0 1 2 2 2 2 2 1 2 2 1 1 1 1 1 1 2 2 2 4 5 6 6 6 5 6 5 4 4 4 4 3 3 1 2 2 2 2 1 1 2 2
Wind_Direction
223 182 162 160 159 156 157 159 157 159 153 154 153 150 157 147 120 124 132 138 133 128 125 121 112 104 109 116 115 106 83 51 37 53 16 359 12 17 5 359 2 358 352
183 167 158 156 162 166 167 166 166 164 166 165 161 154 144 140 144 121 104 127 135 138 145 137 136 127 117 103 103 105 105 56 41 91 68 3 351 354 359 3 5 355 355
190 178 166 171 166 170 176 175 171 165 163 146 129 112 90 77 84 82 109 134 137 133 136 142 138 134 132 136 136 133 133 138 36 63 121 128 259 317 330 351 0 355 354
194 178 176 180 181 182 174 168 166 161 157 148 151 152 158 166 184 181 171 124 123 132 136 142 142 139 133 138 158 140 134 134 137 38 57 128 161 162 322 329 347 353 352
198 191 190 189 188 174 166 165 160 160 157 156 158 157 157 157 137 125 122 116 101 117 133 142 147 149 151 155 144 128 130 139 148 152 128 88 69 110 159 304 326 338 334
210 205 194 171 161 158 159 157 159 161 159 159 159 160 159 151 140 146 158 163 148 146 123 135 139 158 160 162 156 147 147 158 151 153 144 148 156 172 165 222 295 310 312
200 183 169 172 165 163 162 165 164 166 163 162 167 170 166 163 165 171 177 171 170 189 205 174 163 165 171 160 143 141 151 166 160 177 183 187 198 173 172 182 254 302 309
188 182 184 181 175 170 165 160 173 172 168 171 177 173 165 167 174 179 179 183 190 196 186 180 174 166 154 145 136 135 161 147 170 179 176 196 232 207 191 179 182 304 316
196 174 156 154 167 167 172 171 171 172 176 178 173 170 168 168 177 181 182 186 188 187 172 177 175 177 166 156 143 140 174 155 177 194 198 216 238 229 219 196 192 195 278
144 124 133 138 157 169 160 153 165 180 181 179 180 179 181 184 180 177 190 192 189 176 169 175 179 177 179 168 151 168 189 162 208 205 192 230 240 243 228 211 207 206 215
130 103 94 121 144 158 157 155 164 170 174 179 178 175 180 179 176 189 201 196 188 179 182 184 184 187 195 186 173 194 192 193 228 239 217 240 233 231 232 214 203 215 204
130 127 136 156 149 157 167 161 172 175 182 179 174 178 176 175 184 200 203 193 188 188 190 187 189 194 196 196 196 209 214 217 230 242 237 248 239 243 239 222 230 235 222
101 113 127 164 185 185 194 183 188 191 182 176 176 177 180 185 195 198 194 187 185 188 192 192 199 204 203 203 211 211 219 226 234 239 238 242 234 249 247 236 238 244 242
144 135 153 268 258 230 210 200 191 193 190 180 182 186 193 195 195 189 185 188 184 187 198 204 210 213 209 209 214 215 222 232 238 240 241 242 234 239 242 242 241 240 244
189 194 180 276 318 327 314 283 243 203 189 185 191 203 199 193 184 181 185 191 193 196 200 203 214 218 212 214 214 219 224 231 246 255 252 248 246 244 237 237 230 224 235
217 219 207 247 268 287 299 296 262 244 189 200 209 204 191 186 186 187 183 186 200 199 193 202 211 219 228 228 220 213 221 230 239 254 264 264 253 254 248 243 234 221 222
215 208 205 213 233 231 229 248 262 235 178 207 223 196 188 191 200 197 185 193 200 196 206 214 211 223 237 232 227 219 213 225 237 247 256 264 267 257 252 253 252 247 244
197 212 213 217 229 225 209 223 253 202 173 195 221 213 198 199 198 192 200 205 200 199 209 222 220 221 239 235 229 222 219 229 239 242 241 245 261 260 245 244 254 258 257
192 203 205 203 190 201 203 158 133 201 172 227 247 235 217 203 197 199 208 206 195 200 204 211 215 218 239 231 222 209 217 237 252 255 251 246 250 265 248 226 246 270 282
159 173 171 119 127 253 178 134 141 177 251 251 257 244 227 217 207 205 206 198 188 197 197 208 217 220 234 237 227 212 208 232 254 268 267 258 256 269 243 224 227 250 269
126 117 123 127 211 220 142 131 145 235 257 257 256 242 221 218 210 198 188 176 180 179 188 213 233 230 231 233 231 216 204 219 233 246 265 272 273 266 256 238 234 245 255
158 150 147 199 244 174 132 137 238 252 266 233 303 277 251 230 189 160 156 153 164 179 206 223 249 257 244 230 239 234 227 218 214 233 248 260 264 262 259 248 252 252 246
223 187 171 200 259 223 166 185 261 265 111 73 351 308 311 287 217 176 170 172 175 187 209 222 241 263 262 246 242 242 241 233 223 237 247 261 263 262 257 250 248 237 208
216 192 163 187 250 259 229 217 242 195 140 151 279 273 261 284 280 194 182 192 203 203 205 216 236 253 258 254 250 246 241 239 239 247 254 255 261 264 254 259 242 238 234
249 181 178 206 244 255 267 261 236 184 169 177 257 294 267 254 254 233 219 215 220 210 206 216 218 223 244 247 235 223 232 227 226 203 219 307 305 296 290 276 267 262 256
281 158 185 209 251 258 267 276 258 196 172 191 251 249 243 251 247 246 273 249 236 237 229 228 223 226 232 243 245 247 245 237 193 159 200 236 244 244 248 255 276 279 271